| time (UTC) | temp F | wind direction | speed MPH | gust MPH | rain 1hr in | rain 24hr in | rain mn in | humidity % | barometer mb |
| 20260905144827 | 77 | 198 | 6.0 | 8.0 | 0.00 | 0.09 | 0.01 | 78 | 1014.9 |
| 20260905144323 | 77 | 210 | 4.0 | 8.0 | 0.00 | 0.09 | 0.01 | 78 | 1015.0 |
| 20260905143816 | 77 | 220 | 6.0 | 8.0 | 0.00 | 0.09 | 0.01 | 79 | 1015.1 |
| 20260905143350 | 76 | 184 | 3.0 | 7.0 | 0.00 | 0.09 | 0.01 | 80 | 1015.1 |
| 20260905142822 | 76 | 202 | 3.0 | 10.0 | 0.00 | 0.09 | 0.01 | 81 | 1015.1 |
| 20260905142314 | 75 | 207 | 3.0 | 8.0 | 0.00 | 0.09 | 0.01 | 83 | 1015.0 |
| 20260905141827 | 75 | 201 | 3.0 | 10.0 | 0.00 | 0.09 | 0.01 | 84 | 1015.0 |
| 20260905141320 | 75 | 206 | 4.0 | 10.0 | 0.00 | 0.09 | 0.01 | 84 | 1015.2 |
| 20260905140812 | 75 | 208 | 4.0 | 7.0 | 0.00 | 0.09 | 0.01 | 84 | 1015.2 |
| 20260905140325 | 74 | 162 | 4.0 | 9.0 | 0.00 | 0.09 | 0.01 | 85 | 1015.2 |
| 20260905135823 | 74 | 205 | 4.0 | 9.0 | 0.00 | 0.09 | 0.01 | 87 | 1015.2 |
| 20260905135315 | 74 | 214 | 5.0 | 9.0 | 0.00 | 0.09 | 0.01 | 87 | 1015.3 |
| 20260905134848 | 73 | 172 | 4.0 | 9.0 | 0.00 | 0.09 | 0.01 | 87 | 1015.4 |
| 20260905134320 | 73 | 205 | 6.0 | 9.0 | 0.00 | 0.09 | 0.01 | 88 | 1015.8 |
| 20260905133813 | 73 | 207 | 3.0 | 6.0 | 0.00 | 0.09 | 0.01 | 87 | 1015.8 |
| 20260905133326 | 73 | 141 | 3.0 | 6.0 | 0.00 | 0.09 | 0.01 | 88 | 1015.9 |
| 20260905132818 | 73 | 207 | 3.0 | 5.0 | 0.00 | 0.09 | 0.01 | 86 | 1016.2 |
| 20260905132311 | 73 | 139 | 2.0 | 5.0 | 0.00 | 0.09 | 0.01 | 86 | 1016.1 |
| 20260905131844 | 73 | 162 | 2.0 | 5.0 | 0.00 | 0.09 | 0.01 | 86 | 1016.3 |
| 20260905131340 | 73 | 164 | 2.0 | 8.0 | 0.00 | 0.09 | 0.01 | 87 | 1016.5 |
| 20260905130812 | 73 | 114 | 3.0 | 8.0 | 0.00 | 0.09 | 0.01 | 88 | 1016.3 |
| 20260905130345 | 73 | 87 | 4.0 | 7.0 | 0.00 | 0.09 | 0.01 | 88 | 1016.2 |
| 20260905125837 | 73 | 82 | 1.0 | 3.0 | 0.00 | 0.09 | 0.01 | 88 | 1016.2 |
| 20260905125348 | 72 | 134 | 1.0 | 2.0 | 0.00 | 0.09 | 0.01 | 90 | 1016.1 |
| 20260905124820 | 71 | 117 | 0.0 | 0.0 | 0.00 | 0.09 | 0.01 | 93 | 1015.9 |
| 20260905124313 | 70 | 126 | 0.0 | 0.0 | 0.00 | 0.09 | 0.01 | 94 | 1015.9 |
| 20260905123826 | 70 | 127 | 0.0 | 0.0 | 0.00 | 0.09 | 0.01 | 94 | 1016.0 |
| 20260905123319 | 70 | 126 | 0.0 | 0.0 | 0.00 | 0.09 | 0.01 | 93 | 1016.1 |
| 20260905122812 | 69 | 71 | 0.0 | 3.0 | 0.00 | 0.09 | 0.01 | 94 | 1016.0 |
| 20260905122329 | 69 | 43 | 0.0 | 3.0 | 0.00 | 0.09 | 0.01 | 94 | 1016.0 |
| 20260905121822 | 69 | 87 | 0.0 | 1.0 | 0.00 | 0.09 | 0.01 | 94 | 1016.0 |
| 20260905121314 | 69 | 149 | 0.0 | 0.0 | 0.00 | 0.09 | 0.01 | 94 | 1015.9 |
| 20260905120847 | 69 | 149 | 0.0 | 2.0 | 0.00 | 0.09 | 0.01 | 94 | 1015.9 |
| 20260905120339 | 69 | 152 | 0.0 | 2.0 | 0.00 | 0.09 | 0.01 | 94 | 1016.0 |
| 20260905115811 | 69 | 90 | 0.0 | 5.0 | 0.00 | 0.09 | 0.01 | 94 | 1016.1 |
| 20260905115324 | 69 | 89 | 2.0 | 5.0 | 0.00 | 0.09 | 0.01 | 94 | 1016.1 |
| 20260905114816 | 69 | 53 | 2.0 | 7.0 | 0.00 | 0.09 | 0.01 | 94 | 1016.0 |
| 20260905114349 | 69 | 63 | 4.0 | 7.0 | 0.00 | 0.09 | 0.01 | 94 | 1016.0 |
| 20260905113821 | 69 | 63 | 1.0 | 9.0 | 0.00 | 0.09 | 0.01 | 94 | 1016.2 |
| 20260905113317 | 69 | 52 | 2.0 | 9.0 | 0.00 | 0.09 | 0.01 | 94 | 1016.2 |
| 20260905112810 | 69 | 61 | 3.0 | 6.0 | 0.00 | 0.09 | 0.01 | 94 | 1016.3 |
| 20260905112323 | 69 | 82 | 3.0 | 6.0 | 0.00 | 0.09 | 0.01 | 94 | 1016.3 |
| 20260905111815 | 69 | 37 | 2.0 | 8.0 | 0.00 | 0.09 | 0.01 | 94 | 1016.5 |
| 20260905111329 | 69 | 45 | 3.0 | 9.0 | 0.00 | 0.09 | 0.01 | 94 | 1016.4 |
| 20260905110821 | 69 | 75 | 4.0 | 9.0 | 0.00 | 0.09 | 0.01 | 94 | 1016.3 |
| 20260905110335 | 69 | 62 | 5.0 | 11.0 | 0.00 | 0.09 | 0.01 | 94 | 1016.1 |
| 20260905105827 | 69 | 33 | 6.0 | 11.0 | 0.00 | 0.09 | 0.01 | 93 | 1015.9 |
| 20260905105323 | 69 | 44 | 6.0 | 15.0 | 0.01 | 0.09 | 0.01 | 94 | 1015.8 |
| 20260905104816 | 69 | 26 | 6.0 | 15.0 | 0.01 | 0.09 | 0.01 | 94 | 1015.8 |
| 20260905104329 | 69 | 58 | 8.0 | 15.0 | 0.01 | 0.09 | 0.01 | 94 | 1016.0 |
| 20260905103822 | 69 | 59 | 4.0 | 10.0 | 0.01 | 0.09 | 0.01 | 94 | 1016.0 |
| 20260905103314 | 69 | 48 | 5.0 | 13.0 | 0.01 | 0.09 | 0.01 | 94 | 1016.1 |
| 20260905102827 | 70 | 72 | 9.0 | 16.0 | 0.01 | 0.09 | 0.01 | 93 | 1016.1 |
| 20260905102320 | 70 | 51 | 10.0 | 16.0 | 0.01 | 0.09 | 0.01 | 92 | 1016.3 |
| 20260905101813 | 71 | 67 | 6.0 | 20.0 | 0.01 | 0.09 | 0.01 | 92 | 1016.5 |
| 20260905101330 | 71 | 68 | 12.0 | 20.0 | 0.01 | 0.09 | 0.01 | 92 | 1016.2 |
| 20260905100823 | 71 | 16 | 10.0 | 19.0 | 0.01 | 0.09 | 0.01 | 92 | 1016.3 |
| 20260905100315 | 71 | 16 | 10.0 | 25.0 | 0.01 | 0.09 | 0.01 | 92 | 1016.4 |
| 20260905095829 | 71 | 30 | 15.0 | 28.0 | 0.01 | 0.09 | 0.01 | 94 | 1016.3 |
| 20260905095321 | 72 | 55 | 11.0 | 28.0 | 0.00 | 0.08 | 0.00 | 97 | 1016.3 |
| 20260905094814 | 72 | 360 | 7.0 | 14.0 | 0.00 | 0.08 | 0.00 | 97 | 1015.8 |
| 20260905094327 | 71 | 39 | 0.0 | 0.0 | 0.00 | 0.08 | 0.00 | 97 | 1014.4 |
| 20260905093840 | 72 | 39 | 0.0 | 0.0 | 0.00 | 0.08 | 0.00 | 97 | 1014.3 |
| 20260905093332 | 72 | 39 | 0.0 | 0.0 | 0.00 | 0.08 | 0.00 | 97 | 1014.1 |
| 20260905092827 | 72 | 39 | 0.0 | 0.0 | 0.00 | 0.08 | 0.00 | 97 | 1014.1 |
| 20260905092321 | 72 | 39 | 0.0 | 0.0 | 0.00 | 0.08 | 0.00 | 97 | 1014.2 |
| 20260905091813 | 71 | 39 | 0.0 | 0.0 | 0.00 | 0.08 | 0.00 | 97 | 1014.2 |
| 20260905091326 | 71 | 39 | 0.0 | 0.0 | 0.00 | 0.08 | 0.00 | 97 | 1014.2 |
| 20260905090819 | 71 | 39 | 0.0 | 0.0 | 0.00 | 0.08 | 0.00 | 97 | 1014.2 |
| 20260905090312 | 71 | 39 | 0.0 | 0.0 | 0.00 | 0.08 | 0.00 | 97 | 1014.2 |
| 20260905085825 | 72 | 39 | 0.0 | 0.0 | 0.00 | 0.08 | 0.00 | 97 | 1014.2 |
| 20260905085317 | 72 | 39 | 0.0 | 0.0 | 0.00 | 0.08 | 0.00 | 97 | 1014.2 |
| 20260905084814 | 72 | 39 | 0.0 | 0.0 | 0.00 | 0.08 | 0.00 | 97 | 1014.2 |
| 20260905084327 | 72 | 39 | 0.0 | 0.0 | 0.00 | 0.08 | 0.00 | 97 | 1014.2 |
| 20260905083820 | 72 | 39 | 0.0 | 1.0 | 0.00 | 0.08 | 0.00 | 97 | 1014.2 |
| 20260905083312 | 72 | 39 | 0.0 | 1.0 | 0.00 | 0.08 | 0.00 | 97 | 1014.3 |
| 20260905082825 | 72 | 39 | 0.0 | 1.0 | 0.00 | 0.08 | 0.00 | 97 | 1014.4 |
| 20260905082337 | 72 | 39 | 0.0 | 1.0 | 0.00 | 0.08 | 0.00 | 97 | 1014.4 |
| 20260905081830 | 72 | 39 | 0.0 | 1.0 | 0.00 | 0.08 | 0.00 | 97 | 1014.3 |
| 20260905081322 | 72 | 39 | 0.0 | 1.0 | 0.00 | 0.08 | 0.00 | 97 | 1014.3 |
| 20260905080819 | 72 | 37 | 0.0 | 1.0 | 0.00 | 0.08 | 0.00 | 97 | 1014.2 |
| 20260905080312 | 72 | 37 | 0.0 | 0.0 | 0.00 | 0.08 | 0.00 | 97 | 1014.1 |
| 20260905075825 | 72 | 37 | 0.0 | 0.0 | 0.00 | 0.08 | 0.00 | 97 | 1014.0 |
| 20260905075318 | 72 | 37 | 0.0 | 0.0 | 0.00 | 0.08 | 0.00 | 97 | 1013.9 |
| 20260905074810 | 72 | 37 | 0.0 | 0.0 | 0.00 | 0.08 | 0.00 | 97 | 1013.7 |
| 20260905074323 | 72 | 37 | 0.0 | 0.0 | 0.00 | 0.08 | 0.00 | 97 | 1013.6 |
| 20260905073816 | 72 | 37 | 0.0 | 0.0 | 0.00 | 0.08 | 0.00 | 97 | 1013.5 |
| 20260905073329 | 72 | 37 | 0.0 | 0.0 | 0.00 | 0.08 | 0.00 | 97 | 1013.3 |
| 20260905072826 | 72 | 37 | 0.0 | 1.0 | 0.00 | 0.08 | 0.00 | 97 | 1013.4 |
| 20260905072319 | 72 | 37 | 0.0 | 1.0 | 0.00 | 0.08 | 0.00 | 97 | 1013.3 |
| 20260905071812 | 72 | 37 | 0.0 | 1.0 | 0.00 | 0.08 | 0.00 | 97 | 1013.2 |
| 20260905071325 | 72 | 37 | 0.0 | 1.0 | 0.00 | 0.08 | 0.00 | 97 | 1013.4 |
| 20260905070837 | 72 | 37 | 0.0 | 1.0 | 0.00 | 0.08 | 0.00 | 97 | 1013.4 |
| 20260905070329 | 72 | 37 | 0.0 | 0.0 | 0.00 | 0.08 | 0.00 | 97 | 1013.4 |
| 20260905065821 | 71 | 37 | 0.0 | 1.0 | 0.00 | 0.08 | 0.00 | 97 | 1013.4 |
| 20260905065313 | 71 | 37 | 0.0 | 0.0 | 0.00 | 0.08 | 0.00 | 97 | 1013.5 |
| 20260905064810 | 71 | 37 | 0.0 | 0.0 | 0.00 | 0.08 | 0.00 | 97 | 1013.7 |
| 20260905064323 | 71 | 37 | 0.0 | 0.0 | 0.00 | 0.08 | 0.00 | 97 | 1013.8 |
| 20260905063815 | 71 | 37 | 0.0 | 0.0 | 0.00 | 0.08 | 0.00 | 97 | 1013.9 |
| 20260905063328 | 71 | 37 | 0.0 | 0.0 | 0.00 | 0.08 | 0.00 | 97 | 1014.1 |
| 20260905062821 | 71 | 37 | 0.0 | 0.0 | 0.00 | 0.08 | 0.00 | 97 | 1014.1 |
| 20260905062314 | 71 | 37 | 0.0 | 0.0 | 0.00 | 0.08 | 0.00 | 97 | 1014.1 |
| 20260905061847 | 71 | 37 | 0.0 | 0.0 | 0.00 | 0.08 | 0.00 | 97 | 1014.1 |
| 20260905061338 | 71 | 37 | 0.0 | 0.0 | 0.00 | 0.08 | 0.00 | 97 | 1014.2 |
| 20260905060830 | 71 | 37 | 0.0 | 0.0 | 0.00 | 0.08 | 0.00 | 97 | 1014.2 |
| 20260905060343 | 71 | 37 | 0.0 | 0.0 | 0.00 | 0.08 | 0.00 | 97 | 1014.3 |
| 20260905055818 | 71 | 37 | 0.0 | 0.0 | 0.00 | 0.08 | 0.00 | 97 | 1014.2 |
| 20260905055331 | 71 | 37 | 0.0 | 0.0 | 0.00 | 0.08 | 0.00 | 97 | 1014.3 |
| 20260905054824 | 71 | 37 | 0.0 | 0.0 | 0.00 | 0.08 | 0.00 | 97 | 1014.3 |
| 20260905054316 | 71 | 37 | 0.0 | 0.0 | 0.00 | 0.08 | 0.00 | 97 | 1014.4 |
| 20260905053829 | 71 | 37 | 0.0 | 0.0 | 0.00 | 0.08 | 0.00 | 97 | 1014.5 |
| 20260905053322 | 71 | 37 | 0.0 | 0.0 | 0.00 | 0.08 | 0.00 | 97 | 1014.5 |
| 20260905052814 | 71 | 37 | 0.0 | 0.0 | 0.00 | 0.08 | 0.00 | 97 | 1014.5 |
| 20260905052327 | 71 | 37 | 0.0 | 0.0 | 0.00 | 0.08 | 0.00 | 97 | 1014.5 |
| 20260905051821 | 71 | 37 | 0.0 | 0.0 | 0.00 | 0.08 | 0.00 | 97 | 1014.7 |
| 20260905051317 | 71 | 37 | 0.0 | 0.0 | 0.00 | 0.08 | 0.00 | 97 | 1014.7 |
| 20260905050810 | 71 | 37 | 0.0 | 0.0 | 0.00 | 0.08 | 0.00 | 97 | 1014.8 |
| 20260905050343 | 71 | 37 | 0.0 | 0.0 | 0.00 | 0.08 | 0.00 | 97 | 1014.9 |
| 20260905045815 | 72 | 37 | 0.0 | 0.0 | 0.00 | 0.08 | 0.00 | 97 | 1014.9 |
| 20260905045327 | 72 | 37 | 0.0 | 0.0 | 0.00 | 0.08 | 0.00 | 97 | 1014.9 |
| 20260905044820 | 72 | 37 | 0.0 | 0.0 | 0.00 | 0.08 | 0.00 | 97 | 1014.9 |
| 20260905044314 | 72 | 37 | 0.0 | 0.0 | 0.00 | 0.08 | 0.00 | 97 | 1014.9 |
| 20260905043826 | 72 | 37 | 0.0 | 0.0 | 0.00 | 0.08 | 0.00 | 97 | 1015.0 |
| 20260905043339 | 72 | 37 | 0.0 | 0.0 | 0.00 | 0.08 | 0.00 | 97 | 1014.9 |
| 20260905042815 | 72 | 37 | 0.0 | 0.0 | 0.00 | 0.08 | 0.00 | 97 | 1015.0 |
| 20260905042328 | 72 | 37 | 0.0 | 1.0 | 0.00 | 0.08 | 0.00 | 97 | 1015.0 |
| 20260905041821 | 72 | 37 | 0.0 | 0.0 | 0.00 | 0.08 | 0.00 | 97 | 1015.1 |
| 20260905041313 | 72 | 37 | 0.0 | 0.0 | 0.00 | 0.08 | 0.00 | 97 | 1015.1 |
| 20260905040826 | 73 | 37 | 0.0 | 0.0 | 0.00 | 0.08 | 0.00 | 97 | 1015.1 |
| 20260905040319 | 72 | 37 | 0.0 | 0.0 | 0.00 | 0.08 | 0.00 | 97 | 1015.1 |
| 20260905035812 | 72 | 37 | 0.0 | 0.0 | 0.00 | 0.08 | 0.00 | 97 | 1015.0 |
| 20260905035325 | 73 | 37 | 0.0 | 0.0 | 0.00 | 0.08 | 0.00 | 97 | 1015.0 |
| 20260905034822 | 72 | 37 | 0.0 | 0.0 | 0.00 | 0.08 | 0.08 | 97 | 1015.1 |
| 20260905034315 | 72 | 37 | 0.0 | 0.0 | 0.00 | 0.08 | 0.08 | 97 | 1015.2 |
| 20260905033827 | 73 | 37 | 0.0 | 0.0 | 0.00 | 0.08 | 0.08 | 97 | 1015.2 |
| 20260905033341 | 73 | 37 | 0.0 | 0.0 | 0.00 | 0.08 | 0.08 | 97 | 1015.1 |
| 20260905032812 | 73 | 37 | 0.0 | 1.0 | 0.00 | 0.08 | 0.08 | 97 | 1015.0 |
| 20260905032324 | 73 | 37 | 0.0 | 1.0 | 0.00 | 0.08 | 0.08 | 97 | 1015.1 |
| 20260905031817 | 72 | 37 | 0.0 | 0.0 | 0.00 | 0.08 | 0.08 | 97 | 1015.0 |
| 20260905031350 | 72 | 37 | 0.0 | 0.0 | 0.00 | 0.08 | 0.08 | 97 | 1015.0 |
| 20260905030822 | 73 | 37 | 0.0 | 0.0 | 0.00 | 0.08 | 0.08 | 97 | 1015.0 |
| 20260905030318 | 73 | 37 | 0.0 | 0.0 | 0.00 | 0.08 | 0.08 | 97 | 1015.0 |
| 20260905025811 | 73 | 37 | 0.0 | 0.0 | 0.00 | 0.08 | 0.08 | 97 | 1015.0 |
| 20260905025324 | 73 | 37 | 0.0 | 0.0 | 0.00 | 0.08 | 0.08 | 97 | 1015.0 |
| 20260905024817 | 73 | 37 | 0.0 | 0.0 | 0.00 | 0.08 | 0.08 | 97 | 1015.0 |
| 20260905024309 | 73 | 37 | 0.0 | 0.0 | 0.00 | 0.08 | 0.08 | 97 | 1015.0 |
| 20260905023823 | 73 | 37 | 0.0 | 0.0 | 0.00 | 0.08 | 0.08 | 97 | 1015.0 |
| 20260905023336 | 73 | 37 | 0.0 | 0.0 | 0.00 | 0.08 | 0.08 | 97 | 1015.0 |
| 20260905022828 | 73 | 37 | 0.0 | 0.0 | 0.00 | 0.08 | 0.08 | 97 | 1014.9 |
| 20260905022324 | 73 | 37 | 0.0 | 0.0 | 0.00 | 0.08 | 0.08 | 97 | 1015.0 |
| 20260905021817 | 73 | 37 | 0.0 | 0.0 | 0.00 | 0.08 | 0.08 | 97 | 1015.0 |
| 20260905021310 | 73 | 37 | 0.0 | 0.0 | 0.00 | 0.08 | 0.08 | 97 | 1015.0 |
| 20260905020324 | 73 | 37 | 0.0 | 0.0 | 0.00 | 0.08 | 0.08 | 96 | 1015.0 |
| 20260905015816 | 74 | 37 | 0.0 | 0.0 | 0.00 | 0.08 | 0.08 | 96 | 1014.9 |
| 20260905015329 | 74 | 37 | 0.0 | 0.0 | 0.00 | 0.08 | 0.08 | 96 | 1014.8 |
| 20260905014822 | 74 | 37 | 0.0 | 0.0 | 0.00 | 0.08 | 0.08 | 97 | 1014.8 |
| 20260905014316 | 74 | 37 | 0.0 | 0.0 | 0.00 | 0.08 | 0.08 | 96 | 1014.8 |
| 20260905013812 | 74 | 37 | 0.0 | 0.0 | 0.00 | 0.08 | 0.08 | 96 | 1014.7 |
| 20260905013325 | 74 | 37 | 0.0 | 0.0 | 0.00 | 0.08 | 0.08 | 96 | 1014.7 |
| 20260905012818 | 74 | 37 | 0.0 | 0.0 | 0.00 | 0.08 | 0.08 | 96 | 1014.6 |
| 20260905012311 | 74 | 37 | 0.0 | 0.0 | 0.00 | 0.08 | 0.08 | 96 | 1014.5 |
| 20260905011824 | 74 | 37 | 0.0 | 0.0 | 0.00 | 0.08 | 0.08 | 96 | 1014.4 |
| 20260905011336 | 75 | 37 | 0.0 | 0.0 | 0.00 | 0.08 | 0.08 | 96 | 1014.3 |
| 20260905010828 | 75 | 37 | 0.0 | 0.0 | 0.00 | 0.08 | 0.08 | 96 | 1014.4 |
| 20260905010341 | 75 | 37 | 0.0 | 0.0 | 0.00 | 0.08 | 0.08 | 96 | 1014.5 |
| 20260905005833 | 75 | 37 | 0.0 | 0.0 | 0.00 | 0.08 | 0.08 | 96 | 1014.4 |
| 20260905005324 | 75 | 37 | 0.0 | 1.0 | 0.00 | 0.08 | 0.08 | 95 | 1014.5 |
| 20260905004821 | 75 | 37 | 0.0 | 1.0 | 0.00 | 0.08 | 0.08 | 95 | 1014.4 |
| 20260905004314 | 76 | 37 | 0.0 | 0.0 | 0.00 | 0.08 | 0.08 | 95 | 1014.4 |
| 20260905003827 | 76 | 37 | 0.0 | 1.0 | 0.00 | 0.08 | 0.08 | 94 | 1014.4 |
| 20260905003320 | 76 | 37 | 0.0 | 0.0 | 0.00 | 0.08 | 0.08 | 94 | 1014.4 |
| 20260905002833 | 77 | 37 | 0.0 | 1.0 | 0.00 | 0.08 | 0.08 | 93 | 1014.4 |
| 20260905002325 | 77 | 37 | 0.0 | 1.0 | 0.00 | 0.08 | 0.08 | 93 | 1014.5 |
| 20260905001818 | 77 | 37 | 0.0 | 1.0 | 0.00 | 0.08 | 0.08 | 93 | 1014.5 |
| 20260905001311 | 78 | 37 | 0.0 | 0.0 | 0.00 | 0.08 | 0.08 | 92 | 1014.5 |
| 20260905000823 | 78 | 37 | 0.0 | 0.0 | 0.00 | 0.08 | 0.08 | 91 | 1014.4 |
| 20260905000320 | 79 | 37 | 0.0 | 1.0 | 0.00 | 0.08 | 0.08 | 90 | 1014.4 |
| 20260904235813 | 80 | 37 | 0.0 | 1.0 | 0.00 | 0.08 | 0.08 | 89 | 1014.4 |
| 20260904235326 | 80 | 37 | 0.0 | 0.0 | 0.00 | 0.08 | 0.08 | 88 | 1014.4 |
| 20260904234819 | 80 | 37 | 0.0 | 1.0 | 0.00 | 0.08 | 0.08 | 88 | 1014.4 |
| 20260904234312 | 80 | 37 | 0.0 | 1.0 | 0.00 | 0.08 | 0.08 | 88 | 1014.4 |
| 20260904233825 | 81 | 37 | 0.0 | 1.0 | 0.00 | 0.08 | 0.08 | 88 | 1014.5 |
| 20260904233317 | 81 | 37 | 0.0 | 1.0 | 0.00 | 0.08 | 0.08 | 87 | 1014.5 |
| 20260904232814 | 81 | 37 | 0.0 | 1.0 | 0.00 | 0.08 | 0.08 | 86 | 1014.5 |
| 20260904232327 | 81 | 38 | 0.0 | 1.0 | 0.00 | 0.08 | 0.08 | 87 | 1014.5 |
| 20260904231820 | 81 | 38 | 0.0 | 2.0 | 0.00 | 0.08 | 0.08 | 86 | 1014.4 |
| 20260904231313 | 81 | 38 | 1.0 | 2.0 | 0.00 | 0.08 | 0.08 | 85 | 1014.5 |
| 20260904230826 | 82 | 65 | 0.0 | 3.0 | 0.00 | 0.08 | 0.08 | 84 | 1014.4 |
| 20260904230339 | 82 | 77 | 2.0 | 3.0 | 0.00 | 0.08 | 0.08 | 84 | 1014.5 |
| 20260904225851 | 82 | 79 | 0.0 | 2.0 | 0.00 | 0.08 | 0.08 | 84 | 1014.6 |
| 20260904225322 | 82 | 49 | 0.0 | 1.0 | 0.00 | 0.08 | 0.08 | 82 | 1014.6 |
| 20260904224835 | 82 | 49 | 0.0 | 3.0 | 0.00 | 0.08 | 0.08 | 83 | 1014.6 |
| 20260904224327 | 82 | 49 | 1.0 | 3.0 | 0.00 | 0.08 | 0.08 | 84 | 1014.6 |
| 20260904223822 | 82 | 215 | 0.0 | 2.0 | 0.00 | 0.08 | 0.08 | 83 | 1014.6 |
| 20260904223315 | 82 | 215 | 0.0 | 2.0 | 0.00 | 0.08 | 0.08 | 84 | 1014.5 |
| 20260904222828 | 82 | 215 | 1.0 | 2.0 | 0.00 | 0.08 | 0.08 | 83 | 1014.7 |
| 20260904222321 | 81 | 181 | 0.0 | 2.0 | 0.00 | 0.08 | 0.08 | 85 | 1014.7 |
| 20260904221814 | 81 | 202 | 1.0 | 4.0 | 0.00 | 0.08 | 0.08 | 84 | 1014.6 |
| 20260904221347 | 80 | 210 | 2.0 | 4.0 | 0.00 | 0.08 | 0.08 | 85 | 1014.7 |
| 20260904220818 | 80 | 163 | 1.0 | 4.0 | 0.00 | 0.08 | 0.08 | 87 | 1014.7 |
| 20260904220351 | 80 | 135 | 1.0 | 5.0 | 0.01 | 0.08 | 0.08 | 87 | 1014.8 |
| 20260904215842 | 79 | 198 | 2.0 | 10.0 | 0.03 | 0.08 | 0.08 | 88 | 1014.7 |
| 20260904215313 | 79 | 161 | 5.0 | 10.0 | 0.04 | 0.08 | 0.08 | 87 | 1014.6 |
| 20260904214810 | 79 | 123 | 3.0 | 8.0 | 0.08 | 0.08 | 0.08 | 89 | 1014.7 |
| 20260904214324 | 79 | 143 | 3.0 | 8.0 | 0.08 | 0.08 | 0.08 | 89 | 1014.9 |
| 20260904213816 | 78 | 75 | 2.0 | 6.0 | 0.08 | 0.08 | 0.08 | 89 | 1015.0 |
| 20260904213349 | 77 | 82 | 2.0 | 6.0 | 0.08 | 0.08 | 0.08 | 90 | 1015.5 |
| 20260904212841 | 76 | 77 | 4.0 | 6.0 | 0.08 | 0.08 | 0.08 | 91 | 1015.9 |
| 20260904212312 | 76 | 74 | 0.0 | 6.0 | 0.08 | 0.08 | 0.08 | 92 | 1016.5 |
| 20260904211825 | 75 | 79 | 2.0 | 6.0 | 0.08 | 0.08 | 0.08 | 93 | 1016.8 |
| 20260904211318 | 75 | 108 | 1.0 | 7.0 | 0.08 | 0.08 | 0.08 | 92 | 1016.9 |
| 20260904210832 | 76 | 75 | 4.0 | 8.0 | 0.08 | 0.08 | 0.08 | 91 | 1017.2 |
| 20260904210323 | 76 | 46 | 5.0 | 9.0 | 0.06 | 0.06 | 0.06 | 90 | 1017.4 |
| 20260904205820 | 77 | 17 | 4.0 | 11.0 | 0.05 | 0.05 | 0.05 | 87 | 1017.4 |
| 20260904205313 | 79 | 57 | 5.0 | 17.0 | 0.04 | 0.04 | 0.04 | 83 | 1016.8 |
| 20260904204825 | 81 | 347 | 7.0 | 17.0 | 0.00 | 0.00 | 0.00 | 78 | 1016.4 |
| 20260904204318 | 84 | 34 | 10.0 | 17.0 | 0.00 | 0.00 | 0.00 | 71 | 1015.6 |
| 20260904203812 | 89 | 53 | 9.0 | 17.0 | 0.00 | 0.00 | 0.00 | 63 | 1015.4 |
| 20260904203344 | 94 | 26 | 1.0 | 3.0 | 0.00 | 0.00 | 0.00 | 65 | 1015.0 |
| 20260904202813 | 94 | 125 | 0.0 | 1.0 | 0.00 | 0.00 | 0.00 | 58 | 1015.2 |
| 20260904202326 | 95 | 125 | 0.0 | 3.0 | 0.00 | 0.00 | 0.00 | 58 | 1014.8 |
| 20260904201823 | 95 | 204 | 0.0 | 4.0 | 0.00 | 0.00 | 0.00 | 60 | 1014.8 |
| 20260904201315 | 95 | 262 | 2.0 | 7.0 | 0.00 | 0.00 | 0.00 | 59 | 1015.1 |
| 20260904200829 | 95 | 256 | 2.0 | 8.0 | 0.00 | 0.00 | 0.00 | 59 | 1015.2 |
| 20260904200322 | 95 | 243 | 1.0 | 5.0 | 0.00 | 0.00 | 0.00 | 59 | 1015.2 |
| 20260904195834 | 94 | 246 | 2.0 | 7.0 | 0.00 | 0.00 | 0.00 | 60 | 1015.2 |
| 20260904195326 | 94 | 262 | 4.0 | 10.0 | 0.00 | 0.00 | 0.00 | 59 | 1015.2 |
| 20260904194839 | 95 | 222 | 4.0 | 8.0 | 0.00 | 0.00 | 0.00 | 59 | 1015.3 |
| 20260904194311 | 95 | 264 | 2.0 | 8.0 | 0.00 | 0.00 | 0.00 | 59 | 1015.2 |
| 20260904193823 | 95 | 234 | 1.0 | 6.0 | 0.00 | 0.00 | 0.00 | 62 | 1015.2 |
| 20260904193320 | 95 | 293 | 0.0 | 5.0 | 0.00 | 0.00 | 0.00 | 61 | 1015.2 |
| 20260904192813 | 95 | 288 | 3.0 | 6.0 | 0.00 | 0.00 | 0.00 | 62 | 1015.2 |
| 20260904192346 | 94 | 236 | 2.0 | 8.0 | 0.00 | 0.00 | 0.00 | 59 | 1015.2 |
| 20260904191818 | 94 | 285 | 3.0 | 8.0 | 0.00 | 0.00 | 0.00 | 62 | 1015.3 |
| 20260904191311 | 93 | 250 | 2.0 | 8.0 | 0.00 | 0.00 | 0.00 | 60 | 1015.4 |
| 20260904190823 | 93 | 264 | 0.0 | 10.0 | 0.00 | 0.00 | 0.00 | 61 | 1015.5 |
| 20260904190316 | 94 | 259 | 3.0 | 10.0 | 0.00 | 0.00 | 0.00 | 60 | 1015.5 |
| 20260904185830 | 94 | 236 | 4.0 | 10.0 | 0.00 | 0.00 | 0.00 | 64 | 1015.5 |
| 20260904185322 | 94 | 254 | 5.0 | 9.0 | 0.00 | 0.00 | 0.00 | 60 | 1015.7 |
| 20260904184838 | 94 | 264 | 5.0 | 8.0 | 0.00 | 0.00 | 0.00 | 58 | 1015.8 |
| 20260904184310 | 95 | 250 | 2.0 | 7.0 | 0.00 | 0.00 | 0.00 | 59 | 1015.9 |
| 20260904183823 | 95 | 255 | 0.0 | 7.0 | 0.00 | 0.00 | 0.00 | 59 | 1015.9 |
| 20260904183316 | 95 | 227 | 4.0 | 9.0 | 0.00 | 0.00 | 0.00 | 55 | 1016.0 |
| 20260904182829 | 95 | 255 | 2.0 | 9.0 | 0.00 | 0.00 | 0.00 | 64 | 1016.0 |
| 20260904182342 | 96 | 250 | 2.0 | 6.0 | 0.00 | 0.00 | 0.00 | 60 | 1016.1 |
| 20260904181813 | 95 | 354 | 1.0 | 4.0 | 0.00 | 0.00 | 0.00 | 61 | 1016.1 |
| 20260904181326 | 95 | 314 | 0.0 | 10.0 | 0.00 | 0.00 | 0.00 | 63 | 1016.2 |
| 20260904180819 | 94 | 266 | 4.0 | 11.0 | 0.00 | 0.00 | 0.00 | 59 | 1016.4 |
| 20260904180316 | 94 | 265 | 6.0 | 11.0 | 0.00 | 0.00 | 0.00 | 60 | 1016.5 |
| 20260904175829 | 94 | 273 | 5.0 | 11.0 | 0.00 | 0.00 | 0.00 | 60 | 1016.6 |
| 20260904175321 | 94 | 38 | 1.0 | 9.0 | 0.00 | 0.00 | 0.00 | 62 | 1016.7 |
| 20260904174813 | 94 | 278 | 5.0 | 8.0 | 0.00 | 0.00 | 0.00 | 61 | 1016.8 |
| 20260904174327 | 94 | 282 | 3.0 | 10.0 | 0.00 | 0.00 | 0.00 | 62 | 1016.8 |
| 20260904173839 | 94 | 27 | 4.0 | 10.0 | 0.00 | 0.00 | 0.00 | 63 | 1016.8 |
| 20260904173331 | 94 | 244 | 3.0 | 8.0 | 0.00 | 0.00 | 0.00 | 61 | 1017.0 |
| 20260904172843 | 95 | 360 | 1.0 | 5.0 | 0.00 | 0.00 | 0.00 | 64 | 1017.0 |
| 20260904172314 | 95 | 248 | 0.0 | 3.0 | 0.00 | 0.00 | 0.00 | 63 | 1017.0 |
| 20260904171811 | 95 | 326 | 0.0 | 4.0 | 0.00 | 0.00 | 0.00 | 63 | 1017.0 |
| 20260904171323 | 94 | 354 | 1.0 | 6.0 | 0.00 | 0.00 | 0.00 | 65 | 1017.1 |
| 20260904170836 | 95 | 279 | 2.0 | 6.0 | 0.00 | 0.00 | 0.00 | 64 | 1017.0 |
| 20260904170328 | 95 | 307 | 1.0 | 5.0 | 0.00 | 0.00 | 0.00 | 62 | 1017.0 |
| 20260904165821 | 95 | 284 | 0.0 | 5.0 | 0.00 | 0.00 | 0.00 | 64 | 1017.1 |
| 20260904165314 | 94 | 268 | 0.0 | 7.0 | 0.00 | 0.00 | 0.00 | 64 | 1017.2 |
| 20260904164827 | 94 | 360 | 1.0 | 7.0 | 0.00 | 0.00 | 0.00 | 63 | 1017.2 |
| 20260904164319 | 94 | 264 | 1.0 | 6.0 | 0.00 | 0.00 | 0.00 | 65 | 1017.2 |
| 20260904163811 | 94 | 267 | 0.0 | 6.0 | 0.00 | 0.00 | 0.00 | 65 | 1017.1 |
| 20260904163328 | 93 | 261 | 1.0 | 6.0 | 0.00 | 0.00 | 0.00 | 67 | 1017.2 |
| 20260904162821 | 93 | 281 | 1.0 | 8.0 | 0.00 | 0.00 | 0.00 | 65 | 1017.2 |
| 20260904162314 | 93 | 271 | 2.0 | 7.0 | 0.00 | 0.00 | 0.00 | 67 | 1017.3 |
| 20260904161826 | 93 | 270 | 4.0 | 7.0 | 0.00 | 0.00 | 0.00 | 64 | 1017.3 |
| 20260904161339 | 93 | 27 | 3.0 | 10.0 | 0.00 | 0.00 | 0.00 | 64 | 1017.3 |
| 20260904160811 | 93 | 264 | 0.0 | 10.0 | 0.00 | 0.00 | 0.00 | 64 | 1017.3 |
| 20260904160323 | 93 | 285 | 1.0 | 7.0 | 0.00 | 0.00 | 0.00 | 63 | 1017.3 |
| 20260904155835 | 93 | 274 | 1.0 | 13.0 | 0.00 | 0.00 | 0.00 | 66 | 1017.3 |
| 20260904155347 | 92 | 255 | 1.0 | 13.0 | 0.00 | 0.00 | 0.00 | 65 | 1017.3 |
| 20260904154819 | 92 | 277 | 1.0 | 9.0 | 0.00 | 0.00 | 0.00 | 66 | 1017.3 |
| 20260904154316 | 91 | 277 | 0.0 | 9.0 | 0.00 | 0.00 | 0.00 | 68 | 1017.3 |
| 20260904153828 | 91 | 277 | 2.0 | 6.0 | 0.00 | 0.00 | 0.00 | 66 | 1017.3 |
| 20260904153321 | 91 | 291 | 2.0 | 8.0 | 0.00 | 0.00 | 0.00 | 69 | 1017.3 |
| 20260904152814 | 91 | 265 | 1.0 | 6.0 | 0.00 | 0.00 | 0.00 | 69 | 1017.2 |
| 20260904152327 | 90 | 265 | 4.0 | 8.0 | 0.00 | 0.00 | 0.00 | 67 | 1017.2 |
| 20260904151819 | 90 | 252 | 3.0 | 8.0 | 0.00 | 0.00 | 0.00 | 69 | 1017.1 |
| 20260904151332 | 90 | 286 | 3.0 | 9.0 | 0.00 | 0.00 | 0.00 | 69 | 1017.1 |
| 20260904150823 | 90 | 278 | 5.0 | 9.0 | 0.00 | 0.00 | 0.00 | 68 | 1017.2 |
| 20260904150321 | 89 | 227 | 2.0 | 6.0 | 0.00 | 0.00 | 0.00 | 72 | 1017.1 |
| 20260904145814 | 89 | 262 | 3.0 | 9.0 | 0.00 | 0.00 | 0.00 | 71 | 1017.1 |
| 20260904145326 | 89 | 255 | 5.0 | 9.0 | 0.00 | 0.00 | 0.00 | 69 | 1017.1 |